�N����,����,�~����,�C��,���x,�C��,����,���ϕ���,�ő�u�ԕ���,�ő厞����,���˗�,�I�_���x,�n�����x,�ő啗���N��,DTYPE
"18/08/09","00:10",0.0,25.9,77.7,995.3,297.9,1.0,2.1,331.1,0.00,21.7,26.8,"00:09:52",1
"18/08/09","00:20",0.0,25.9,78.2,995.1,307.4,0.8,1.7,331.4,0.00,21.9,26.6,"00:12:08",1
"18/08/09","00:30",0.0,25.9,78.7,994.8,312.4,1.0,2.0,331.2,0.00,22.0,26.7,"00:25:52",1
"18/08/09","00:40",0.0,25.9,78.9,994.6,309.0,1.1,2.9,331.8,0.00,22.0,26.6,"00:31:36",1
"18/08/09","00:50",0.0,25.9,78.9,994.6,313.1,1.1,2.1,319.0,0.00,22.0,26.7,"00:45:12",1
"18/08/09","01:00",0.0,25.9,79.0,994.6,312.5,1.2,2.6,322.0,0.00,22.0,26.8,"00:54:32",1
"18/08/09","01:10",0.0,25.9,79.1,994.6,292.9,1.2,2.2,329.4,0.00,22.0,26.6,"01:08:40",1
"18/08/09","01:20",0.0,25.9,79.1,994.8,306.8,1.2,2.6,254.8,0.00,22.0,26.5,"01:18:16",1
"18/08/09","01:30",0.0,25.8,79.2,994.4,295.4,1.3,3.2,278.6,0.00,22.0,26.5,"01:22:24",1
"18/08/09","01:40",0.0,25.9,79.2,994.4,324.0,1.8,3.2,326.5,0.00,22.1,26.6,"01:34:56",1
"18/08/09","01:50",0.0,25.8,79.6,994.4,307.0,1.8,3.9,287.4,0.00,22.0,26.4,"01:41:20",1
"18/08/09","02:00",0.0,25.8,80.2,994.6,312.1,1.5,2.8,336.4,0.00,22.2,26.4,"01:59:20",1
"18/08/09","02:10",0.0,25.7,80.9,993.9,305.4,1.6,3.2,323.9,0.00,22.2,26.3,"02:07:52",1
"18/08/09","02:20",0.0,25.6,81.5,993.9,328.5,2.3,5.7,328.6,0.00,22.2,26.4,"02:12:56",1
"18/08/09","02:30",0.0,25.5,82.1,993.9,331.0,1.7,3.7,346.3,0.00,22.3,26.4,"02:22:24",1
"18/08/09","02:40",0.0,25.4,83.0,993.7,334.0,2.0,3.5,324.4,0.00,22.3,26.4,"02:38:40",1
"18/08/09","02:50",0.0,25.3,83.6,993.9,325.2,1.6,3.3,337.2,0.00,22.4,26.4,"02:40:32",1
"18/08/09","03:00",0.0,25.4,84.0,993.7,321.6,1.6,3.1,342.7,0.00,22.5,26.4,"02:51:52",1
"18/08/09","03:10",0.0,25.3,84.4,993.7,329.2,1.7,3.5,337.3,0.00,22.5,26.2,"03:03:28",1
"18/08/09","03:20",0.0,25.3,84.8,993.7,327.2,1.7,3.4,343.6,0.00,22.6,26.4,"03:12:48",1
"18/08/09","03:30",0.0,25.3,85.1,993.7,339.7,2.3,3.6,345.4,0.00,22.7,26.3,"03:29:44",1
"18/08/09","03:40",0.0,25.3,85.2,994.1,337.6,2.5,4.4,341.6,0.00,22.7,26.4,"03:38:24",1
"18/08/09","03:50",0.0,25.3,85.2,993.9,331.0,2.2,4.0,316.7,0.00,22.7,26.2,"03:49:12",1
"18/08/09","04:00",0.0,25.3,85.3,993.9,333.2,2.1,3.4,336.5,0.00,22.7,26.2,"03:52:32",1
"18/08/09","04:10",0.0,25.4,85.4,994.1,335.3,2.1,4.0,338.7,0.00,22.8,26.2,"04:03:36",1
"18/08/09","04:20",0.0,25.3,85.7,994.1,334.8,2.2,3.4,335.8,0.00,22.8,26.2,"04:10:16",1
"18/08/09","04:30",0.0,25.2,86.2,994.1,334.1,2.1,4.0,329.1,0.00,22.8,26.1,"04:23:44",1
"18/08/09","04:40",0.0,25.2,86.5,993.9,332.0,1.7,2.5,334.0,0.00,22.8,26.3,"04:30:02",1
"18/08/09","04:50",0.0,25.2,86.7,994.1,333.0,2.1,4.2,345.7,0.00,22.9,26.2,"04:42:48",1
"18/08/09","05:00",0.0,25.1,87.0,994.1,333.6,2.1,4.4,351.4,0.00,22.8,26.2,"04:52:48",1
"18/08/09","05:10",0.0,25.1,87.2,994.1,333.1,2.1,4.2,330.6,0.00,22.9,26.1,"05:00:24",1
"18/08/09","05:20",0.0,25.1,87.4,994.6,332.4,2.3,4.5,336.6,0.00,22.9,26.3,"05:16:56",1
"18/08/09","05:30",0.0,25.1,87.5,994.6,329.4,2.0,3.6,329.6,0.00,22.9,26.0,"05:29:28",1
"18/08/09","05:40",0.0,25.2,87.6,994.4,327.3,2.0,3.9,334.5,0.00,23.0,26.1,"05:39:12",1
"18/08/09","05:50",0.0,25.1,87.7,994.1,329.5,2.0,3.5,334.9,0.00,23.0,26.2,"05:43:28",1
"18/08/09","06:00",0.0,25.1,87.8,994.4,317.8,1.6,3.7,347.3,0.00,23.0,26.1,"05:57:36",1
"18/08/09","06:10",0.0,25.2,87.8,994.1,329.0,2.0,4.1,335.3,0.00,23.1,26.2,"06:02:16",1
"18/08/09","06:20",0.0,25.3,87.7,994.8,325.0,1.6,3.1,335.2,0.00,23.2,26.1,"06:17:36",1
"18/08/09","06:30",0.0,25.3,87.5,994.8,327.8,1.5,2.4,326.6,0.00,23.1,26.3,"06:24:32",1
"18/08/09","06:40",0.0,25.4,87.3,994.8,322.1,1.2,2.4,338.8,0.00,23.2,26.2,"06:35:12",1
"18/08/09","06:50",0.0,25.5,87.2,994.8,330.4,1.3,2.5,336.4,0.00,23.3,26.1,"06:49:04",1
"18/08/09","07:00",0.0,25.6,86.7,994.8,320.5,1.7,4.1,323.1,0.00,23.3,26.1,"06:51:52",1
"18/08/09","07:10",0.0,25.6,86.8,995.1,320.0,1.6,3.4,324.8,0.01,23.3,26.1,"07:00:24",1
"18/08/09","07:20",0.0,25.7,86.7,995.1,314.5,1.3,2.6,346.5,0.01,23.4,26.0,"07:11:36",1
"18/08/09","07:30",0.0,25.9,86.0,995.1,307.9,1.1,2.4,339.1,0.02,23.4,26.2,"07:26:08",1
"18/08/09","07:40",0.0,26.0,85.5,994.8,311.8,1.3,2.4,340.0,0.02,23.4,26.2,"07:36:56",1
"18/08/09","07:50",0.0,25.9,85.4,994.8,323.6,1.7,4.9,343.6,0.03,23.3,26.3,"07:47:28",1
"18/08/09","08:00",0.0,25.9,85.5,995.1,316.2,1.5,3.3,348.3,0.03,23.3,26.3,"07:53:04",1
"18/08/09","08:10",0.0,25.8,85.6,995.1,316.9,1.7,4.5,339.4,0.02,23.2,26.2,"08:04:24",1
"18/08/09","08:20",0.0,25.8,86.0,995.3,326.9,1.7,3.7,342.7,0.04,23.3,26.3,"08:14:32",1
"18/08/09","08:30",0.0,26.3,85.0,995.1,308.2,1.3,2.6,352.2,0.08,23.6,26.2,"08:20:24",1
"18/08/09","08:40",0.0,26.4,83.9,995.1,326.0,1.7,3.3,343.4,0.07,23.5,26.6,"08:34:16",1
"18/08/09","08:50",0.0,26.4,83.6,994.8,335.0,1.8,4.3,345.8,0.06,23.4,26.3,"08:41:04",1
"18/08/09","09:00",0.0,26.5,83.8,995.1,317.7,1.7,4.2,339.4,0.06,23.6,26.5,"08:54:24",1
"18/08/09","09:10",0.0,26.9,82.9,994.8,317.6,1.6,3.5,329.0,0.09,23.8,26.4,"09:03:04",1
"18/08/09","09:20",0.0,26.8,83.3,994.8,311.7,1.6,3.5,342.9,0.09,23.8,26.7,"09:12:48",1
"18/08/09","09:30",0.0,26.9,82.3,994.8,287.4,1.2,2.2,346.8,0.10,23.7,26.8,"09:23:36",1
"18/08/09","09:40",0.0,27.1,82.6,994.8,286.0,1.3,3.2,338.0,0.14,23.9,26.8,"09:36:48",1
"18/08/09","09:50",0.0,27.1,82.1,994.6,281.7,1.0,2.9,226.7,0.13,23.8,26.9,"09:42:56",1
"18/08/09","10:00",0.0,27.4,82.2,994.6,278.1,1.2,2.9,319.9,0.15,24.1,27.0,"09:57:20",1
"18/08/09","10:10",0.0,28.0,79.7,994.4,278.7,1.0,2.5,351.5,0.19,24.2,27.2,"10:00:32",1
"18/08/09","10:20",0.0,28.1,79.5,994.1,300.7,1.3,4.0,358.7,0.20,24.3,27.5,"10:18:24",1
"18/08/09","10:30",0.0,29.1,76.5,994.4,331.6,1.8,3.2,11.7,0.32,24.6,27.6,"10:25:12",1
"18/08/09","10:40",0.0,29.4,75.4,995.1,315.5,1.2,3.2,338.1,0.39,24.6,27.8,"10:30:08",1
"18/08/09","10:50",0.0,28.9,75.6,994.8,321.5,1.7,4.5,342.1,0.17,24.2,27.9,"10:44:24",1
"18/08/09","11:00",0.0,28.5,76.6,994.8,313.4,1.7,3.6,349.9,0.16,24.0,27.9,"10:55:44",1
"18/08/09","11:10",0.0,28.8,76.8,994.4,319.8,1.6,4.1,340.6,0.17,24.4,28.3,"11:09:28",1
"18/08/09","11:20",0.0,28.9,76.4,994.8,328.1,1.3,3.9,347.3,0.24,24.4,28.2,"11:17:36",1
"18/08/09","11:30",0.0,29.3,75.5,994.8,314.0,1.3,4.0,344.0,0.24,24.6,28.4,"11:25:44",1
"18/08/09","11:40",0.0,28.4,77.4,994.6,328.2,1.7,3.4,350.4,0.12,24.1,28.6,"11:34:00",1
"18/08/09","11:50",0.0,28.2,78.8,994.8,304.1,1.6,4.8,351.6,0.11,24.2,28.4,"11:44:08",1
"18/08/09","12:00",0.0,28.3,78.5,994.4,331.2,2.0,4.9,344.6,0.20,24.2,28.5,"11:59:52",1
"18/08/09","12:10",0.0,29.2,76.8,994.4,325.8,1.8,4.2,337.9,0.30,24.7,28.7,"12:04:16",1
"18/08/09","12:20",0.0,29.8,74.4,994.6,322.7,2.0,4.9,354.1,0.43,24.8,28.7,"12:17:28",1
"18/08/09","12:30",0.0,29.2,76.7,995.1,285.7,1.7,4.4,339.8,0.28,24.7,28.8,"12:20:08",1
"18/08/09","12:40",0.0,29.4,74.7,995.1,287.4,1.6,4.0,343.9,0.28,24.5,29.0,"12:34:56",1
"18/08/09","12:50",0.0,29.5,73.7,995.1,299.9,1.6,4.0,351.7,0.26,24.3,29.3,"12:43:28",1
"18/08/09","13:00",0.0,29.7,74.0,994.6,295.4,1.5,4.2,343.9,0.22,24.6,29.3,"12:59:36",1
"18/08/09","13:10",0.0,30.7,70.6,995.3,272.7,1.2,3.4,226.0,0.30,24.8,29.5,"13:02:56",1
"18/08/09","13:20",0.0,30.8,68.6,995.3,354.5,1.7,5.1,338.4,0.21,24.4,29.4,"13:16:32",1
"18/08/09","13:30",0.0,31.6,67.6,995.3,350.7,1.8,4.0,352.8,0.38,24.9,29.6,"13:20:40",1
"18/08/09","13:40",0.0,30.5,69.0,995.3,351.7,2.6,6.0,337.6,0.25,24.2,29.7,"13:37:44",1
"18/08/09","13:50",0.0,31.0,68.3,994.8,340.7,2.0,4.4,342.1,0.25,24.5,29.7,"13:40:32",1
"18/08/09","14:00",0.0,31.5,66.2,995.1,342.2,1.6,4.4,340.3,0.27,24.5,30.0,"13:57:44",1
"18/08/09","14:10",0.0,30.9,67.1,995.3,345.5,1.6,4.8,331.2,0.22,24.1,30.0,"14:06:40",1
"18/08/09","14:20",0.0,31.1,66.9,995.1,352.2,1.6,4.4,343.3,0.21,24.3,30.3,"14:13:52",1
"18/08/09","14:30",0.0,30.2,69.1,995.1,345.5,1.6,4.8,343.1,0.13,23.9,30.0,"14:29:04",1
"18/08/09","14:40",0.0,30.3,70.2,995.1,7.3,1.8,3.3,352.3,0.15,24.3,30.1,"14:35:36",1
"18/08/09","14:50",0.0,30.1,71.0,995.1,339.3,1.8,3.7,321.3,0.16,24.3,30.2,"14:47:52",1
"18/08/09","15:00",0.0,29.6,73.2,994.4,341.2,1.2,2.7,355.0,0.13,24.3,29.9,"14:56:00",1
"18/08/09","15:10",0.0,29.5,73.0,994.4,345.0,1.5,4.0,354.7,0.13,24.2,29.9,"15:08:40",1
"18/08/09","15:20",0.0,29.6,71.9,994.1,334.0,1.7,4.2,345.4,0.07,24.0,30.0,"15:13:04",1
"18/08/09","15:30",0.0,29.3,74.9,993.4,311.7,1.1,3.4,347.0,0.07,24.4,30.0,"15:21:04",1
"18/08/09","15:40",0.0,29.4,73.8,994.1,321.4,1.5,2.8,348.9,0.14,24.3,29.8,"15:36:08",1
"18/08/09","15:50",0.0,28.9,75.7,994.1,294.8,1.2,2.6,248.7,0.12,24.2,29.9,"15:44:08",1
"18/08/09","16:00",0.0,29.2,74.9,993.9,286.3,1.1,2.5,322.1,0.11,24.3,29.8,"15:54:16",1
"18/08/09","16:10",0.0,28.9,74.9,993.7,320.3,1.7,4.5,345.8,0.07,24.0,29.7,"16:01:28",1
"18/08/09","16:20",0.0,28.7,76.1,993.9,320.7,1.5,3.6,354.4,0.07,24.1,29.5,"16:12:08",1
"18/08/09","16:30",0.0,28.7,76.1,993.4,317.2,1.3,4.0,344.1,0.08,24.1,29.7,"16:24:40",1
"18/08/09","16:40",0.0,28.6,77.0,993.4,314.9,1.6,4.2,351.2,0.06,24.2,29.6,"16:38:24",1
"18/08/09","16:50",0.0,28.2,77.8,993.0,328.4,2.3,5.5,345.6,0.07,24.0,29.5,"16:42:48",1
"18/08/09","17:00",0.0,28.2,78.0,993.2,318.9,2.1,4.8,340.5,0.07,24.0,29.5,"16:56:08",1
"18/08/09","17:10",0.0,28.1,78.7,993.2,315.1,1.6,3.3,338.1,0.06,24.1,29.4,"17:02:08",1
"18/08/09","17:20",0.0,28.6,77.4,993.0,312.7,1.7,4.0,337.2,0.12,24.3,29.4,"17:14:40",1
"18/08/09","17:30",0.0,29.0,74.7,993.0,296.9,1.3,3.7,337.4,0.12,24.1,29.3,"17:28:48",1
"18/08/09","17:40",0.0,28.7,76.1,993.0,285.8,1.6,5.2,338.2,0.11,24.1,29.2,"17:31:04",1
"18/08/09","17:50",0.0,28.8,75.7,993.7,287.4,1.5,3.1,319.0,0.11,24.1,29.2,"17:42:56",1
"18/08/09","18:00",0.0,28.9,75.3,993.4,300.4,1.5,3.3,346.8,0.04,24.1,29.1,"17:59:36",1
"18/08/09","18:10",0.0,28.7,74.1,993.9,317.2,1.6,3.6,322.5,0.02,23.7,29.3,"18:04:40",1
"18/08/09","18:20",0.0,28.3,75.8,993.7,300.6,1.5,3.4,346.7,0.01,23.7,29.1,"18:16:08",1
"18/08/09","18:30",0.0,27.6,78.3,993.4,274.3,1.3,2.9,343.5,0.00,23.5,29.0,"18:23:12",1
"18/08/09","18:40",0.0,27.2,80.0,994.1,272.3,1.3,2.5,245.8,0.00,23.5,28.7,"18:30:40",1
"18/08/09","18:50",0.0,27.0,81.0,994.1,301.0,1.6,5.4,355.3,0.00,23.5,28.8,"18:42:56",1
"18/08/09","19:00",0.0,27.0,81.4,994.6,322.6,2.1,3.7,340.0,0.00,23.6,28.6,"18:51:52",1
"18/08/09","19:10",0.0,26.9,81.7,994.4,313.8,1.5,2.9,331.0,0.00,23.5,28.5,"19:08:24",1
"18/08/09","19:20",0.0,26.7,82.1,994.8,297.0,1.5,3.4,336.1,0.00,23.4,28.5,"19:18:48",1
"18/08/09","19:30",0.0,26.6,82.5,994.8,330.0,1.1,2.4,359.4,0.00,23.4,28.3,"19:20:08",1
"18/08/09","19:40",0.0,26.6,82.7,995.1,312.9,1.6,3.6,341.6,0.00,23.5,28.3,"19:37:28",1
"18/08/09","19:50",0.0,26.5,83.1,995.1,320.2,1.7,3.7,346.6,0.00,23.4,28.1,"19:48:40",1
"18/08/09","20:00",0.0,26.4,83.4,995.3,306.2,1.1,2.6,332.2,0.00,23.4,28.0,"19:56:08",1
"18/08/09","20:10",0.0,26.5,83.3,995.6,326.0,1.2,2.4,327.0,0.00,23.5,28.1,"20:00:40",1
"18/08/09","20:20",0.0,26.5,83.3,995.6,315.9,0.8,1.6,238.3,0.00,23.5,28.1,"20:12:32",1
"18/08/09","20:30",0.0,26.4,83.5,995.8,317.5,1.1,2.1,335.8,0.00,23.4,27.9,"20:21:28",1
"18/08/09","20:40",0.0,26.4,83.6,995.6,316.8,1.1,2.2,338.4,0.00,23.4,27.7,"20:35:52",1
"18/08/09","20:50",0.0,26.4,83.5,996.0,324.7,1.2,2.0,333.0,0.00,23.4,27.8,"20:44:16",1
"18/08/09","21:00",0.0,26.4,83.3,996.3,323.6,1.2,2.5,339.1,0.00,23.4,27.6,"20:55:44",1
"18/08/09","21:10",0.0,26.4,83.4,996.0,320.9,1.5,3.2,336.0,0.00,23.4,27.7,"21:02:24",1
"18/08/09","21:20",0.0,26.4,83.5,996.3,313.3,1.1,2.6,353.1,0.00,23.4,27.7,"21:10:48",1
"18/08/09","21:30",0.0,26.4,83.3,996.5,323.3,1.6,3.3,347.1,0.00,23.4,27.7,"21:21:12",1
"18/08/09","21:40",0.0,26.4,83.3,996.3,331.6,1.8,2.9,336.4,0.00,23.4,27.5,"21:36:08",1
"18/08/09","21:50",0.0,26.3,83.4,996.5,317.5,1.2,2.5,347.2,0.00,23.3,27.3,"21:41:52",1
"18/08/09","22:00",0.0,26.3,83.7,996.5,329.3,1.8,2.9,317.3,0.00,23.4,27.6,"21:57:28",1
"18/08/09","22:10",0.0,26.1,84.1,997.0,328.8,2.1,4.2,348.9,0.00,23.2,27.4,"22:03:28",1
"18/08/09","22:20",0.0,26.1,84.3,996.5,327.0,2.2,4.4,336.2,0.00,23.3,27.1,"22:13:28",1
"18/08/09","22:30",0.0,26.1,84.5,996.7,299.4,1.3,3.6,342.2,0.00,23.3,27.2,"22:24:56",1
"18/08/09","22:40",0.0,26.1,84.7,996.5,313.8,1.7,3.3,333.7,0.00,23.4,27.1,"22:31:36",1
"18/08/09","22:50",0.0,26.0,84.8,996.7,290.1,1.2,2.2,321.0,0.00,23.3,27.3,"22:47:36",1
"18/08/09","23:00",0.0,26.1,84.7,996.5,314.7,1.8,4.2,352.1,0.00,23.4,27.2,"22:56:40",1
"18/08/09","23:10",0.0,26.1,84.6,996.5,287.2,1.5,2.9,316.2,0.00,23.3,27.2,"23:00:40",1
"18/08/09","23:20",0.0,26.2,84.4,996.3,325.0,1.2,2.2,300.6,0.00,23.4,27.1,"23:10:08",1
"18/08/09","23:30",0.0,26.1,84.4,996.5,320.0,1.3,2.9,331.2,0.00,23.3,27.2,"23:28:08",1
"18/08/09","23:40",0.0,26.1,84.6,996.3,322.9,1.6,3.2,341.8,0.00,23.3,27.3,"23:36:32",1
"18/08/09","23:50",0.0,26.2,84.4,996.3,323.7,1.6,3.2,326.5,0.00,23.4,27.0,"23:43:04",1
"18/08/09","24:00",0.0,26.2,84.2,996.3,324.4,1.7,3.2,326.4,0.00,23.4,27.1,"23:56:56",1
